Regional Weather Roundup
Issued by NWS

Home | Current Version | Previous Version | Graphics & Text | Print | Product List | Glossary On
Versions: 1 2 3 4 5 6 7 8 9 10 11 12 13 14 15 16 17 18 19 20 21 22 23 24 25 26 27 28 29 30 31 32 33 34 35 36 37 38 39 40 41 42 43 44 45 46 47 48 49 50
506
ASUS45 KBOI 261510
RWRID

IDAHO REGIONAL WEATHER ROUNDUP
NATIONAL WEATHER SERVICE BOISE ID
900 AM MDT THU MAY 26 2016

NOTE: "FAIR" INDICATES FEW OR NO CLOUDS BELOW 12000 FEET
WITH NO SIGNIFICANT WEATHER AND/OR OBSTRUCTIONS TO VISIBILITY

IDZ012-014-261600-
SOUTHWEST IDAHO


CITY           SKY/WX    TMP DP  RH WIND       PRES   REMARKS
BOISE          SUNNY     55  42  61 CALM      30.03S
CALDWELL       SUNNY     59  45  59 W9        30.04S
MOUNTAIN HOME  SUNNY     62  48  60 NW15      30.02S
$$

IDZ016-017-261600-
SOUTHCENTRAL IDAHO


CITY           SKY/WX    TMP DP  RH WIND       PRES   REMARKS
BURLEY         SUNNY     55  42  61 MISG      30.04S
JEROME         SUNNY     52  42  69 SW5       30.05S
TWIN FALLS     SUNNY     56  41  57 W14       30.05S
$$

IDZ019>023-261600-
SOUTHEAST IDAHO


CITY           SKY/WX    TMP DP  RH WIND       PRES   REMARKS
IDAHO FALLS    MOSUNNY   49  42  77 S3        30.06S
POCATELLO      MOSUNNY   53  43  68 W8        30.06F
REXBURG        SUNNY     48  41  76 CALM      30.06S
$$

IDZ006-010-011-018-031-032-261600-
CENTRAL IDAHO MOUNTAINS


CITY           SKY/WX    TMP DP  RH WIND       PRES   REMARKS
MCCALL         SUNNY     47  38  71 CALM      30.06S
HAILEY         MOSUNNY   48  37  66 NW7       30.08S
STANLEY          N/A     38  33  82 CALM      30.12F
SALMON         MOSUNNY   48  37  66 CALM      30.07S
CHALLIS        SUNNY     49  37  63 S5        30.08F
$$

IDZ002-004-006-007-026-261600-
NORTHERN IDAHO


CITY           SKY/WX    TMP DP  RH WIND       PRES   REMARKS
LEWISTON       MOSUNNY   59  47  64 VRB3      30.06R
LOWELL           N/A     54  50  86 CALM      30.07F
COEUR D`ALENE  PTSUNNY   54  45  71 S9        30.04R
MULLAN PASS    FOG       41  40  96 CALM      30.07S VSB 1/4
$$




USA.gov is the U.S. government's official web portal to all federal, state and local government web resources and services.